Weather History for KELP - May, 2013

Change the Weather History Date:

Tuesday, May 14, 2013

  Actual Average Record
Temperature  
Mean Temperature 73 °F 73 °F  
Max Temperature 84 °F 87 °F 97 °F (1996)
Min Temperature 61 °F 60 °F 42 °F (1985)
Degree Days  
Heating Degree Days 0 0  
Month to date heating degree days 21 6  
Since 1 July heating degree days 2219 2471  
Cooling Degree Days 8 9  
Month to date cooling degree days 70 96  
Year to date cooling degree days 237 188  
Growing Degree Days 22 (Base 50)    
Moisture  
Dew Point 37 °F    
Average Humidity 29    
Maximum Humidity 43    
Minimum Humidity 14    
Precipitation  
Precipitation 0.00 in 0.01 in 0.58 in (2006)
Month to date precipitation 0.18 0.18  
Year to date precipitation 0.89 1.53  
Snow  
Snow 0.00 in - - ()
Month to date snowfall 0.0  
Since 1 July snowfall 3.1  
Snow Depth 0.00 in    
Sea Level Pressure  
Sea Level Pressure 29.90 in    
Wind  
Wind Speed 8 mph (SSE)    
Max Wind Speed 17 mph    
Max Gust Speed 22 mph    
Visibility 10 miles    
Events      
T = Trace of Precipitation, MM = Missing Value Source: NWS Daily Summary

Daily Weather History Graph

Daily Weather History Graph

Search for Another Location

Airport or City:

Trip Planner

Search our weather history database for the weather conditions in past years. The results will help you decide how hot, cold, wet, or windy it might be!

Date:

Astronomy

May. 14, 2013 Rise Set
Actual Time 6:09 AM MDT 7:55 PM MDT
Civil Twilight 5:42 AM MDT 8:21 PM MDT
Nautical Twilight 5:10 AM MDT 8:54 PM MDT
Astronomical Twilight 4:36 AM MDT 9:28 PM MDT
Moon 9:50 AM MDT (5/14) 11:46 PM MDT (5/14)
Length of Visible Light 14h 39m
Length of Day
13h 46m
Waxing Crescent, 19% of the Moon is Illuminated
May 14
Waxing Crescent
May 17
First Quarter
May 24
Full
May 31
Last Quarter
Jun 8
New

Hourly Weather History & Observations

Time (MDT) Temp. Dew Point Humidity Pressure Visibility Wind Dir Wind Speed Gust Speed Precip Events Conditions
12:51 AM 68.0 °F 35.1 °F 30% 29.95 in 10.0 mi Calm Calm - N/A   Clear
1:51 AM 63.0 °F 37.9 °F 40% 29.95 in 10.0 mi East 5.8 mph - N/A   Partly Cloudy
2:51 AM 66.0 °F 37.0 °F 34% 29.95 in 10.0 mi South 8.1 mph - N/A   Partly Cloudy
3:51 AM 64.9 °F 37.0 °F 36% 29.95 in 10.0 mi South 8.1 mph - N/A   Scattered Clouds
4:51 AM 63.0 °F 37.0 °F 38% 29.94 in 10.0 mi SSE 5.8 mph - N/A   Scattered Clouds
5:51 AM 62.1 °F 37.9 °F 41% 29.96 in 10.0 mi SSE 5.8 mph - N/A   Mostly Cloudy
6:51 AM 62.1 °F 39.0 °F 43% 29.97 in 10.0 mi South 6.9 mph - N/A   Mostly Cloudy
7:51 AM 64.0 °F 39.9 °F 41% 29.97 in 10.0 mi SSE 3.5 mph - N/A   Mostly Cloudy
8:51 AM 69.1 °F 39.9 °F 35% 29.98 in 10.0 mi South 8.1 mph - N/A   Scattered Clouds
9:51 AM 69.1 °F 41.0 °F 36% 29.99 in 10.0 mi SSE 6.9 mph - N/A   Scattered Clouds
10:51 AM 75.0 °F 39.9 °F 28% 29.97 in 10.0 mi SSW 8.1 mph - N/A   Scattered Clouds
11:51 AM 75.2 °F 37.4 °F 25% 30.14 in 10.0 mi SSW 6.9 mph - N/A   Mostly Cloudy
12:51 PM 78.1 °F 37.9 °F 24% 29.91 in 10.0 mi Variable 6.9 mph - N/A   Mostly Cloudy
1:51 PM 80.1 °F 35.1 °F 20% 29.88 in 10.0 mi Variable 5.8 mph - N/A   Mostly Cloudy
2:51 PM 82.0 °F 35.1 °F 18% 29.84 in 10.0 mi North 4.6 mph - N/A   Mostly Cloudy
3:51 PM 84.0 °F 30.0 °F 14% 29.81 in 10.0 mi SW 8.1 mph - N/A   Mostly Cloudy
4:51 PM 82.9 °F 28.0 °F 14% 29.80 in 10.0 mi Variable 4.6 mph - N/A   Mostly Cloudy
5:29 PM 82.4 °F 35.6 °F 19% 29.97 in 10.0 mi SSE 15.0 mph 19.6 mph N/A   Mostly Cloudy
5:51 PM 79.0 °F 36.0 °F 21% 29.79 in 10.0 mi SSE 15.0 mph 20.7 mph N/A   Mostly Cloudy
6:51 PM 78.1 °F 37.0 °F 23% 29.80 in 10.0 mi SSE 11.5 mph - N/A   Mostly Cloudy
7:51 PM 75.9 °F 37.0 °F 24% 29.79 in 10.0 mi SSE 12.7 mph - N/A   Mostly Cloudy
8:51 PM 73.9 °F 36.0 °F 25% 29.79 in 10.0 mi SSE 10.4 mph - N/A   Mostly Cloudy
9:51 PM 73.0 °F 36.0 °F 26% 29.82 in 10.0 mi SSE 10.4 mph - N/A   Mostly Cloudy
10:51 PM 71.1 °F 37.0 °F 29% 29.83 in 10.0 mi South 12.7 mph - N/A   Mostly Cloudy
11:51 PM 68.0 °F 41.0 °F 37% 29.82 in 10.0 mi SSE 9.2 mph - N/A   Scattered Clouds